Regional Weather Roundup
Issued by NWS

Home | Current Version | Previous Version | Graphics & Text | Print | Product List | Glossary On
Versions: 1 2 3 4 5 6 7 8 9 10 11 12 13 14 15 16 17 18 19 20 21 22 23 24 25 26 27 28 29 30 31 32 33 34 35 36 37 38 39 40 41 42 43 44 45 46 47 48 49 50
000
ASUS44 KMEG 232000
RWRTN
TENNESSEE HOURLY STATE WEATHER ROUNDUP
NATIONAL WEATHER SERVICE MEMPHIS TN
300 PM CDT THU OCT 23 2014

TNZ002-004-019-021-049-052-054-088>092-232100-
WEST TENNESSEE

CITY           SKY/WX    TMP DP  RH WIND       PRES   REMARKS
MEMPHIS INTL   CLOUDY    64  43  46 N7        30.13F
NWS MEMPHIS      N/A     63 N/A N/A MISG        N/A
JACKSON        CLOUDY    65  41  41 N6        30.12F
DYERSBURG      CLOUDY    63  37  39 NW3       30.16S
UNION CITY     SUNNY     57  43  58 CALM      30.13F
PARIS          SUNNY     59  43  55 N3        30.14F
LEXINGTON      SUNNY     63  41  45 N5        30.12S
SAVANNAH       SUNNY     64  46  52 NW7       30.12S
$$

TNZ008-025-027-028-033-062-065-066-232100-
NORTH MIDDLE TENNESSEE

CITY           SKY/WX    TMP DP  RH WIND       PRES   REMARKS
NASHVILLE      PTSUNNY   64  40  41 N6        30.12F
CLARKSVILLE    CLOUDY    62  41  46 CALM      30.13F
COOKEVILLE     SUNNY     64  45  48 N8        30.11F
CROSSVILLE     SUNNY     65  35  33 N6        30.11F HAZE
$$

TNZ061-075-076-078-094-096-097-232100-
SOUTH MIDDLE TENNESSEE

CITY           SKY/WX    TMP DP  RH WIND       PRES   REMARKS
TULLAHOMA      SUNNY     64  37  36 N7        30.10F
WINCHESTER     SUNNY     64  43  45 N7        30.10F
MCMINNVILLE    SUNNY     63  45  51 CALM      30.11F
SHELBYVILLE    SUNNY     64  45  48 N8        30.11F
$$

TNZ017-018-042-046-047-232100-
NORTHEAST TENNESSEE

CITY           SKY/WX    TMP DP  RH WIND       PRES   REMARKS
TRI CITIES     MOSUNNY   59  41  51 N7        30.11F
ELIZABETHTON   CLEAR     57  39  51 VRB6      30.10S
$$

TNZ012-013-036-069-073-074-232100-
CENTRAL EAST TENNESSEE

CITY           SKY/WX    TMP DP  RH WIND       PRES   REMARKS
KNOXVILLE      MOSUNNY   63  42  46 NE9       30.09F
OAK RIDGE      SUNNY     64  42  44 VRB5      30.11F
GATLINBURG     CLEAR     61  41  48 N7        30.10S
MORRISTOWN     CLEAR     59  41  51 NE6       30.11F
$$

TNZ083-085-099-232100-
SOUTHEAST TENNESSEE

CITY           SKY/WX    TMP DP  RH WIND       PRES   REMARKS
CHATTANOOGA    PTSUNNY   64  40  41 NE7       30.08F
$$

SKY/WX REPORTED AS FAIR MEANS FEW OR NO CLOUDS BELOW
12 THOUSAND FEET.




USA.gov is the U.S. government's official web portal to all federal, state and local government web resources and services.